Home > Weather > Saint Helier > Past weeks

Flag for Jersey Weather for the Past 2 Weeks in Saint Helier, Jersey

Now
45 °F

Passing clouds.


Feels Like: 35 °F
Forecast: N/A
Wind: 31 mph from West

Location: Jersey Airport

Current Time: Feb 8, 2016 at 5:51:40 PM

Latest Report: Feb 8, 2016 at 5:20 PM


Visibility: N/A

Pressure: 29.59 "Hg

Humidity: 87%

Dew point: 41 °F

Location of Saint HelierLocation

Historic Weather in Saint Helier — Graph

°F

Saint Helier Temperature Yesterday

Maximum temperature yesterday: 52 °F (at 9:50 PM)
Minimum temperature yesterday: 41 °F (at 5:50 AM)
Average temperature yesterday: 46 °F

High & Low Weather Summary for the Past Weeks

 TemperatureHumidityPressure
High54 °F (Jan 25, 2:50 PM)100% (Jan 24, 4:50 PM)30.51 "Hg (Jan 24, 4:50 PM)
Low39 °F (Feb 3, 6:20 AM)61% (Feb 3, 7:50 AM)29.21 "Hg (Feb 6, 7:50 PM)
Average49 °F88%30.05 "Hg
* Reported Jan 24 4:20 PM — Feb 8 4:20 PM, Saint Helier, Weather by CustomWeather, © 2016

Note: Actual official high and low records may vary slightly from our data, if they occured in-between our weather recording intervals... More about our weather records

Advertising

Saint Helier Weather History for the Previous 24 Hours

 ConditionsComfort  
Time TempWeatherWind HumidityBarometerVisibility
4:20 PM
Mon, Feb 8
46 °FPassing clouds.37 mph76%29.56 "HgN/A
3:50 PM48 °FScattered clouds.32 mph76%29.53 "HgN/A
3:20 PM46 °FPassing clouds.32 mph82%29.53 "HgN/A
2:50 PM48 °FPartly sunny.43 mph71%29.50 "Hg4 mi
2:20 PM46 °FPassing clouds.37 mph76%29.50 "HgN/A
1:50 PM48 °FScattered clouds.47 mph76%29.50 "HgN/A
1:20 PM45 °FSprinkles. Partly sunny.43 mph87%29.50 "Hg4 mi
12:50 PM50 °FScattered clouds.35 mph71%29.47 "HgN/A
12:20 PM48 °FPartly sunny.28 mph76%29.47 "HgN/A
11:50 AM48 °FPartly sunny.40 mph76%29.45 "HgN/A
11:20 AM48 °FPassing clouds.31 mph82%29.45 "HgN/A
10:50 AM46 °FSprinkles. Partly sunny.36 mph76%29.45 "HgN/A
10:20 AM45 °FScattered showers. Scattered clouds.39 mph87%29.42 "HgN/A
9:50 AM46 °FScattered clouds.31 mph82%29.42 "HgN/A
9:20 AM46 °FScattered clouds.39 mph82%29.42 "HgN/A
8:50 AM45 °FScattered clouds.31 mph87%29.39 "HgN/A
8:20 AM46 °FSprinkles. Partly sunny.36 mph82%29.39 "HgN/A
7:50 AM45 °FPassing clouds.38 mph87%29.39 "HgN/A
7:20 AM41 °FScattered showers. Partly cloudy.36 mph87%29.36 "Hg4 mi
6:50 AM48 °FPassing clouds.37 mph71%29.33 "HgN/A
6:20 AM46 °FPassing clouds.52 mph82%29.36 "HgN/A
5:50 AM46 °FSprinkles. Partly cloudy.35 mph87%29.33 "HgN/A
5:20 AM48 °FPassing clouds.41 mph87%29.33 "HgN/A
4:50 AM46 °FScattered showers. Passing clouds.25 mph87%29.33 "HgN/A
4:20 AM48 °FScattered showers. Passing clouds.35 mph82%29.33 "HgN/A
9:50 PM
Sun, Feb 7
52 °FLight rain. Passing clouds.33 mph88%29.39 "HgN/A
9:20 PM50 °FPassing clouds.24 mph94%29.39 "HgN/A
8:50 PM50 °FPassing clouds.23 mph94%29.42 "HgN/A
8:20 PM48 °FPartly cloudy.26 mph94%29.45 "HgN/A
7:50 PM48 °FPassing clouds.29 mph94%29.45 "HgN/A
7:20 PM48 °FPassing clouds.26 mph94%29.47 "Hg4 mi
6:50 PM48 °FPassing clouds.23 mph87%29.50 "HgN/A
6:20 PM46 °FLight rain. Passing clouds.30 mph87%29.50 "HgN/A
5:50 PM46 °FLight rain. Partly cloudy.29 mph87%29.53 "HgN/A
5:20 PM46 °FLight rain. Partly cloudy.21 mph87%29.53 "HgN/A
Weather by CustomWeather, © 2016

See weather overviewHow to use our weather pages